This is the latest recevied weather packets stored in our database for station/object JS1SZZ-13. If no packets are shown the sender has not sent any weather packets the latest 10 day(s).
| Time | Temp. | Humidity | Pressure | Rain* | Wind** | Luminosity | Snow |
|---|---|---|---|---|---|---|---|
| 1777856701 | 24.44° C | 54% | 996.9 hPa | 0 mm | - | - | - |
| 1777855800 | 23.89° C | 62% | 996.7 hPa | 0 mm | - | - | - |
| 1777854899 | 22.22° C | 67% | 996.9 hPa | 0 mm | - | - | - |
| 1777854000 | 22.22° C | 72% | 997.1 hPa | 0 mm | - | - | - |
| 1777853100 | 21.11° C | 73% | 997.4 hPa | 0 mm | - | - | - |
| 1777852200 | 20° C | 75% | 997.7 hPa | 0 mm | - | - | - |
| 1777851300 | 18.89° C | 81% | 997.8 hPa | 0 mm | - | - | - |
| 1777850399 | 17.78° C | 85% | 997.7 hPa | 0 mm | - | - | - |
| 1777849500 | 17.22° C | 87% | 997.5 hPa | 0 mm | - | - | - |
| 1777848600 | 15.56° C | 88% | 997.7 hPa | 0 mm | - | - | - |
| 1777847699 | 16.11° C | 89% | 998.2 hPa | 0 mm | - | - | - |
| 1777846799 | 15.56° C | 90% | 998.1 hPa | 0 mm | - | - | - |
| 1777845901 | 15° C | 92% | 998.4 hPa | 0 mm | - | - | - |
| 1777845000 | 14.44° C | 93% | 998 hPa | 0 mm | - | - | - |
| 1777844099 | 14.44° C | 95% | 998.1 hPa | 0 mm | - | - | - |
| 1777843200 | 13.89° C | 95% | 998.4 hPa | 0.25 mm | - | - | - |
| 1777842300 | 13.33° C | 94% | 998.3 hPa | 0.76 mm | - | - | - |
| 1777841399 | 12.78° C | 95% | 998.7 hPa | 2.54 mm | - | - | - |
| 1777840501 | 12.78° C | 95% | 998.6 hPa | 2.79 mm | - | - | - |
| 1777839600 | 12.78° C | 95% | 998.6 hPa | 2.54 mm | - | - | - |
| 1777838699 | 12.78° C | 95% | 998.4 hPa | 2.29 mm | - | - | - |
| 1777837801 | 12.78° C | 95% | 998.4 hPa | 0.51 mm | - | - | - |
| 1777836900 | 12.78° C | 95% | 998.5 hPa | 0.25 mm | - | - | - |
| 1777835999 | 12.78° C | 95% | 998.6 hPa | 0.51 mm | - | - | - |
| 1777835100 | 12.78° C | 95% | 998.8 hPa | 0.25 mm | - | - | - |
* Rain latest hour (hover to see other rain measurements)
** Current wind speed in m/s (hover to see current wind gust speed)